CanjetBLOCKVirtuelBLOCKQcBLOCKBLOCKBLOCKBLOCKBLOCKBLOCKBLOCKBLOCKBLOCKBLOCKBLOCKvolsBLOCKavecBLOCKFS-kACARS2019-11-13BLOCK10colon52pm

volsBLOCKBLOCKBLOCKBLOCKBLOCKpilotesBLOCKBLOCKBLOCKBLOCKBLOCKBLOCKBLOCKBLOCKtypeBLOCKBLOCKdepBLOCKBLOCKarrBLOCKBLOCKBLOCKBLOCKBLOCKaltBLOCKBLOCKBLOCKBLOCKBLOCKgsBLOCKBLOCKBLOCKBLOCKstatut

CJA9999StephaneBLOCKGB738CYOW-KFLL0ft0ktsarrived
CJA626LucBLOCKBB738CYQB-MMUN0ft0ktsarrived
CJA1101Jean-PierreBLOCKAB738CYOW-CYYZ1447ft132kts10colon54pm








BLOCKAppuyerBLOCKsurBLOCKF5BLOCKpourBLOCKactualiserBLOCKBLOCKBLOCKMiseBLOCKaBLOCKjourcolonBLOCK22colon52colon33pmCanjetBLOCKvirtuelBLOCKQC

Boeing dans le trouble

Publié par Yvan Roy le 2019-10-29


  

                                                         

 


  


Microsoft flight sim 2020

Publié par Yvan Roy le 2019-06-25

 

Microsoft flight simulator 2020 encore plus fort sera disponible pour votre PC au début 2020 .

 

https://www.flightsimulator.com/
 

                                                   

 





Bienvenue chez Canjetvirtuel-Q

Publié par Michel Ayotte le 2013-06-14

 

Canjetvirtuel-Québec est une compagnie aérienne virtuelle qui a été fondée par 2 passionnés de la simulation de vol.

Elle est opérée avec les Boeing 737. Exceptionnelement et pour votre plaisir les Boeing 747,757,767 et 777 sont autorisés pour des vols de plus de 1,5 heure.

Ces appareils pouvant faire des vols cargos ou des vols passagers,que ce soit au Canada, Europe, États-Unis, Mexique et Caraïbes.

Vous trouverez votre place comme pilote chez nous!



Avis

Aux fins de la simulation de vol seulement. CanjetVirtuel Québec n'est en aucun cas affilié avec n'importe quelle compagnie aérienne du monde réel. CanjetVirtuel Québec est un site à but non lucratif gérée par des amateurs de simulation de vol. Toutes les images sont la propriété exclusive de leurs propriétaires respectifs.
| propulsé par phpVMS, © 2013-2019.

Notice

For flight simulation purposes only. CanjetVirtuel Quebec is in no way affiliated with any real world airline. CanjetVirtuel Quebec is a non-profit site run by flight simulation enthusiasts. All images are the sole property of their respective owners.
| powered by phpVMS, © 2013-2019.

Affiliations

Vatsim

Les statistiques du site

Nombre de pilotes: 15
Total des vols effectués: 4946
Trajets disponibles: 543
Passagers transportés: 958024
Total des heures de vol: 15192
Distance totale (NM): 6007303
Pilotes en ligne: 1

METAR

CYHZ 140300Z 31012G17KT 15SM FEW045 M06/M11 A3016 RMK SC1 SC TR SLP223

CYQB 140300Z 25010KT 15SM FEW250 M12/M14 A3035 RMK CI1 CI TR SLP286

CYUL 140300Z 24003KT 15SM BKN140 BKN180 M09/M14 A3040 RMK AS5AS2 SLP300

CYYZ 140300Z 14005KT 15SM SCT016 BKN041 OVC100 M03/M05 A3021 RMK SC3SC2AC3 SLP241